When you browse on this site, cookies collect data to enhance your experience and personalize the content and advertising you see.
Visit our Privacy Policy to learn more. By continuing to use the site, you agree to this use of cookies and data.
  • en France
  • Liste des pays
  • À 7 jours
  • Température de l'eau
  • Carte météo
  • Widgets météo
  • user-avatar
    Se connecter

    Météo par heure à Santa Fe

    Ce jour, 19 Février, Mercredi

    Heure Température Précipitation Vent Pression Humidité
    00:00 +20°C° 0 mm 1 m/s 757 mmHg 36%
    01:00 +20°C° 0 mm 1 m/s 757 mmHg 38%
    02:00 +17°C° 0 mm 0 m/s 757 mmHg 39%
    03:00 +19°C° 0 mm 1 m/s 757 mmHg 40%
    04:00 +19°C° 0 mm 1 m/s 757 mmHg 42%
    05:00 +18°C° 0 mm 1 m/s 756 mmHg 43%
    06:00 +20°C° 0 mm 1 m/s 757 mmHg 42%
    07:00 +22°C° 0 mm 1 m/s 757 mmHg 41%
    08:00 +24°C° 0 mm 1 m/s 757 mmHg 40%
    09:00 +27°C° 0 mm 1 m/s 757 mmHg 35%
    10:00 +29°C° 0 mm 1 m/s 757 mmHg 31%
    11:00 +32°C° 0 mm 1 m/s 756 mmHg 27%
    12:00 +33°C° 0 mm 1 m/s 756 mmHg 24%
    13:00 +34°C° 0 mm 1 m/s 755 mmHg 22%
    14:00 +35°C° 0 mm 1 m/s 754 mmHg 20%
    15:00 +35°C° 0 mm 1 m/s 754 mmHg 20%
    16:00 +35°C° 0 mm 1 m/s 753 mmHg 20%
    17:00 +35°C° 0 mm 1 m/s 753 mmHg 21%
    18:00 +32°C° 0 mm 1 m/s 754 mmHg 25%
    19:00 +30°C° 0 mm 1 m/s 754 mmHg 29%
    20:00 +27°C° 0 mm 1 m/s 755 mmHg 33%
    21:00 +26°C° 0 mm 1 m/s 755 mmHg 37%
    22:00 +25°C° 0 mm 1 m/s 755 mmHg 40%
    23:00 +22°C° 0 mm 0 m/s 755 mmHg 44%

    Demain, 20 Février, Jeudi

    Heure Température Précipitation Vent Pression Humidité
    00:00 +24°C° 0 mm 1 m/s 755 mmHg 45%
    01:00 +24°C° 0 mm 1 m/s 755 mmHg 46%
    02:00 +23°C° 0 mm 1 m/s 756 mmHg 47%
    03:00 +22°C° 0 mm 3 m/s 756 mmHg 47%
    04:00 +21°C° 0 mm 4 m/s 757 mmHg 47%
    05:00 +21°C° 0 mm 5 m/s 758 mmHg 48%
    06:00 +21°C° 0 mm 6 m/s 759 mmHg 46%
    07:00 +22°C° 0 mm 6 m/s 760 mmHg 45%
    08:00 +22°C° 0 mm 7 m/s 760 mmHg 43%
    09:00 +24°C° 0 mm 7 m/s 761 mmHg 35%
    10:00 +27°C° 0 mm 7 m/s 761 mmHg 28%
    11:00 +29°C° 0 mm 7 m/s 761 mmHg 20%
    12:00 +30°C° 0 mm 7 m/s 761 mmHg 18%
    13:00 +32°C° 0 mm 7 m/s 761 mmHg 17%
    14:00 +33°C° 0 mm 7 m/s 760 mmHg 15%
    15:00 +32°C° 0 mm 6 m/s 760 mmHg 16%
    16:00 +30°C° 0 mm 6 m/s 760 mmHg 16%
    17:00 +30°C° 0 mm 6 m/s 760 mmHg 17%
    18:00 +27°C° 0 mm 5 m/s 760 mmHg 21%
    19:00 +25°C° 0 mm 4 m/s 761 mmHg 25%
    20:00 +22°C° 0 mm 3 m/s 761 mmHg 29%
    21:00 +21°C° 0 mm 3 m/s 762 mmHg 31%
    22:00 +20°C° 0 mm 2 m/s 762 mmHg 34%
    23:00 +19°C° 0 mm 2 m/s 763 mmHg 37%

    Après-demain, 21 Février, Vendredi

    Heure Température Précipitation Vent Pression Humidité
    00:00 +18°C° 0 mm 2 m/s 763 mmHg 38%
    01:00 +18°C° 0 mm 2 m/s 763 mmHg 40%
    02:00 +17°C° 0 mm 2 m/s 764 mmHg 42%
    09:00 +22°C° 0 mm 4 m/s 765 mmHg 34%
    10:00 +25°C° 0 mm 4 m/s 765 mmHg 29%
    11:00 +27°C° 0 mm 4 m/s 765 mmHg 23%
    12:00 +28°C° 0 mm 5 m/s 764 mmHg 22%
    13:00 +29°C° 0 mm 5 m/s 764 mmHg 20%
    14:00 +30°C° 0 mm 6 m/s 763 mmHg 18%
    15:00 +30°C° 0 mm 6 m/s 763 mmHg 19%
    16:00 +29°C° 0 mm 6 m/s 762 mmHg 20%
    17:00 +29°C° 0 mm 6 m/s 762 mmHg 22%
    18:00 +26°C° 0 mm 5 m/s 762 mmHg 26%
    19:00 +23°C° 0 mm 4 m/s 763 mmHg 31%
    20:00 +21°C° 0 mm 3 m/s 763 mmHg 35%
    21:00 +20°C° 0 mm 3 m/s 763 mmHg 38%
    22:00 +19°C° 0 mm 2 m/s 764 mmHg 41%
    23:00 +18°C° 0 mm 2 m/s 764 mmHg 44%

    22 Février, Samedi

    Heure Température Précipitation Vent Pression Humidité
    00:00 +18°C° 0 mm 2 m/s 764 mmHg 46%
    01:00 +17°C° 0 mm 2 m/s 764 mmHg 48%
    02:00 +16°C° 0 mm 2 m/s 764 mmHg 50%
    03:00 +16°C° 0 mm 2 m/s 764 mmHg 53%
    04:00 +15°C° 0 mm 2 m/s 765 mmHg 55%
    05:00 +14°C° 0 mm 2 m/s 765 mmHg 57%
    06:00 +16°C° 0 mm 2 m/s 765 mmHg 54%
    07:00 +18°C° 0 mm 3 m/s 765 mmHg 50%
    08:00 +19°C° 0 mm 3 m/s 765 mmHg 46%
    09:00 +21°C° 0 mm 3 m/s 765 mmHg 41%
    10:00 +24°C° 0 mm 3 m/s 765 mmHg 36%
    11:00 +26°C° 0 mm 3 m/s 765 mmHg 30%
    12:00 +27°C° 0 mm 3 m/s 764 mmHg 27%
    13:00 +29°C° 0 mm 3 m/s 763 mmHg 24%
    14:00 +30°C° 0 mm 3 m/s 762 mmHg 20%
    15:00 +30°C° 0 mm 3 m/s 761 mmHg 20%
    16:00 +30°C° 0 mm 3 m/s 760 mmHg 19%
    17:00 +30°C° 0 mm 3 m/s 760 mmHg 19%
    18:00 +27°C° 0 mm 3 m/s 760 mmHg 23%
    19:00 +25°C° 0 mm 3 m/s 760 mmHg 27%
    20:00 +21°C° 0 mm 3 m/s 760 mmHg 31%
    21:00 +20°C° 0 mm 3 m/s 760 mmHg 34%
    22:00 +19°C° 0 mm 3 m/s 761 mmHg 37%
    23:00 +18°C° 0 mm 3 m/s 761 mmHg 40%

    23 Février, Dimanche

    Heure Température Précipitation Vent Pression Humidité
    00:00 +18°C° 0 mm 2 m/s 761 mmHg 44%
    01:00 +17°C° 0 mm 2 m/s 760 mmHg 49%
    02:00 +16°C° 0 mm 2 m/s 760 mmHg 53%
    03:00 +16°C° 0 mm 1 m/s 760 mmHg 55%
    04:00 +15°C° 0 mm 1 m/s 760 mmHg 58%
    05:00 +15°C° 0 mm 1 m/s 760 mmHg 60%
    06:00 +18°C° 0 mm 1 m/s 760 mmHg 54%
    07:00 +19°C° 0 mm 2 m/s 760 mmHg 48%
    08:00 +21°C° 0 mm 2 m/s 760 mmHg 42%
    09:00 +24°C° 0 mm 3 m/s 760 mmHg 37%
    10:00 +26°C° 0 mm 3 m/s 760 mmHg 31%
    11:00 +29°C° 0 mm 3 m/s 759 mmHg 25%
    12:00 +30°C° 0 mm 3 m/s 759 mmHg 23%
    13:00 +31°C° 0 mm 2 m/s 758 mmHg 21%
    14:00 +32°C° 0 mm 2 m/s 757 mmHg 19%
    15:00 +32°C° 0 mm 2 m/s 756 mmHg 20%
    16:00 +32°C° 0 mm 2 m/s 756 mmHg 21%
    17:00 +32°C° 0 mm 2 m/s 755 mmHg 21%
    18:00 +30°C° 0 mm 2 m/s 755 mmHg 26%
    19:00 +27°C° 0 mm 2 m/s 755 mmHg 32%
    20:00 +25°C° 0 mm 3 m/s 755 mmHg 37%
    21:00 +24°C° 0 mm 3 m/s 756 mmHg 40%
    22:00 +22°C° 0 mm 3 m/s 756 mmHg 43%
    23:00 +21°C° 0 mm 3 m/s 756 mmHg 46%

    24 Février, Lundi

    Heure Température Précipitation Vent Pression Humidité
    00:00 +21°C° 0 mm 2 m/s 756 mmHg 49%
    01:00 +20°C° 0 mm 2 m/s 755 mmHg 52%
    02:00 +20°C° 0 mm 2 m/s 755 mmHg 56%
    03:00 +19°C° 0 mm 2 m/s 755 mmHg 57%
    04:00 +19°C° 0 mm 2 m/s 755 mmHg 58%
    05:00 +19°C° 0 mm 1 m/s 755 mmHg 60%
    06:00 +20°C° 0 mm 2 m/s 755 mmHg 54%
    07:00 +23°C° 0 mm 2 m/s 755 mmHg 48%
    08:00 +25°C° 0 mm 2 m/s 755 mmHg 42%
    09:00 +28°C° 0 mm 2 m/s 755 mmHg 36%
    10:00 +30°C° 0 mm 2 m/s 755 mmHg 30%
    11:00 +34°C° 0 mm 2 m/s 754 mmHg 25%
    12:00 +35°C° 0 mm 2 m/s 754 mmHg 22%
    13:00 +36°C° 0 mm 2 m/s 753 mmHg 20%
    14:00 +37°C° 0 mm 2 m/s 752 mmHg 18%
    15:00 +37°C° 0 mm 2 m/s 751 mmHg 18%
    16:00 +37°C° 0 mm 2 m/s 751 mmHg 18%
    17:00 +37°C° 0 mm 2 m/s 750 mmHg 19%
    18:00 +34°C° 0 mm 2 m/s 750 mmHg 22%
    19:00 +30°C° 0 mm 2 m/s 750 mmHg 26%
    20:00 +28°C° 0 mm 3 m/s 751 mmHg 30%
    21:00 +27°C° 0 mm 2 m/s 751 mmHg 33%
    22:00 +26°C° 0 mm 2 m/s 751 mmHg 37%
    23:00 +25°C° 0 mm 2 m/s 752 mmHg 40%
    Voir plus